Location: ????????
(55.5667°N, 37.5833°E)
Time: 20:33:42
(UTC+00:00)

USA 229 - Pass Details

Date: 14 April 2026
Orbit: 843 x 1365 km, 63.4° (Epoch: 10 January)

Event Time Altitude Azimuth Distance (km) Brightness Sun altitude
Rises 23:41:46 0° 311° (NW) 3,955 6.8 -19.2°
Reaches altitude 10° 23:44:28 10° 305° (NW) 3,067 6.1 -19.0°
Maximum altitude 23:51:23 44° 237° (WSW) 1,673 4.3 -18.4°
Drops below altitude 10° 23:58:59 10° 169° (SSE) 3,356 5.9 -17.7°
Sets 00:02:05 0° 163° (SSE) 4,360 6.6 -17.5°
